Location: Ch?enovice
(49.7164°N, 15.2160°E)
Time: 06:24:39
(UTC+00:00)

Cosmos 2098 Rocket - Pass Details

Date: 23 May 2024
Orbit: 360 x 1020 km, 82.9° (Epoch: 15 June)

Event Time Altitude Azimuth Distance (km) Brightness Sun altitude
Rises 00:56:21 0° 354° (N) 3,039 7.6 -14.7°
Reaches altitude 10° 00:58:31 10° 359° (N) 2,219 6.8 -14.6°
Maximum altitude 01:03:28 54° 78° (ENE) 993 4.3 -14.2°
Drops below altitude 10° 01:09:18 10° 155° (SSE) 2,612 5.9 -13.7°
Sets 01:12:02 0° 159° (SSE) 3,626 6.6 -13.4°
Enters shadow 01:12:08 - 159° (SSE) 3,664 6.7 -13.4°
